GFSNE_sfc_thetae_198.txt.gz
Theta_e
320 319 315 313 312 311 310 309 305 302 305 310 310 316 315 315 313 314 314 311 310 308 306 306 307 306 306 306 307 307 309 311 312 312 313 314 314 313
316 315 313 311 311 310 309 308 308 306 304 310 310 314 314 313 313 313 312 311 312 310 307 306 305 305 305 305 305 306 308 310 310 310 310 312 312 312
313 311 309 310 309 309 310 309 308 308 305 308 311 313 313 312 312 311 311 312 312 311 306 306 305 305 305 305 305 305 306 307 307 307 308 309 310 310
309 309 308 309 310 310 309 309 308 309 306 305 309 309 311 312 310 309 309 310 310 310 309 307 307 305 304 305 304 305 305 306 305 306 307 308 309 310
306 307 307 308 308 308 308 308 307 308 308 306 306 309 310 310 307 308 308 309 308 310 310 309 308 307 306 305 305 305 306 305 304 304 304 306 306 307
307 306 305 303 304 305 305 307 307 306 308 307 307 308 308 309 307 302 301 303 302 306 309 308 308 309 309 307 306 308 306 303 303 303 303 303 303 304
304 304 301 301 299 299 300 302 304 304 306 305 305 305 305 303 300 299 298 299 301 304 301 305 308 308 310 309 309 307 305 303 303 302 302 302 301 302
303 303 303 301 300 300 297 297 298 299 301 301 302 301 302 301 298 295 294 293 290 299 293 297 304 304 307 309 305 305 304 303 303 303 302 302 301 301
302 301 300 299 299 300 303 303 301 297 296 299 298 299 297 296 294 292 292 292 291 294 294 294 298 297 301 302 304 304 303 301 301 302 301 301 300 300
302 301 300 299 297 296 302 303 305 306 305 302 301 301 298 296 294 293 293 293 295 296 296 290 297 295 298 304 305 303 301 300 301 301 301 301 300 299
299 295 297 298 291 292 301 301 303 304 303 299 297 295 294 294 294 294 291 289 288 291 293 292 293 293 297 301 305 303 302 301 301 301 301 301 300 300
299 298 291 292 290 290 298 298 297 298 302 304 305 302 299 297 297 295 292 288 288 288 294 290 292 292 289 300 302 305 306 304 302 302 302 302 300 307
296 296 295 289 289 290 291 295 294 294 300 303 303 302 301 298 296 295 293 291 289 289 293 293 291 291 291 291 296 302 306 307 308 305 302 302 300 301
296 296 294 289 290 289 293 289 291 294 300 300 301 300 298 296 294 293 293 294 295 293 295 295 292 292 291 291 293 300 305 309 305 304 305 305 302 302
294 289 289 290 291 293 291 292 294 297 298 298 299 299 298 296 294 293 295 295 294 296 297 297 295 295 295 293 294 299 300 306 308 305 305 305 302 303
291 295 294 293 291 293 297 297 298 297 297 298 299 299 299 295 290 292 291 291 291 292 296 298 297 297 297 299 299 297 302 301 304 303 303 304 304 303
293 297 296 297 296 297 297 297 297 297 296 297 299 297 295 292 291 292 290 290 289 290 291 295 297 298 300 301 297 299 302 302 302 302 302 301 303 301
294 295 294 295 295 295 295 295 296 295 296 296 298 296 292 291 291 292 291 290 289 289 290 293 294 294 297 301 301 297 299 299 302 303 302 299 301 301
294 294 294 294 294 294 295 295 295 295 297 296 297 295 292 293 292 290 291 292 290 290 291 293 293 292 290 291 299 298 296 298 299 299 301 300 300 302
294 293 292 293 294 294 294 294 295 295 295 295 296 295 293 292 291 290 291 290 289 290 291 292 292 291 290 292 294 298 294 297 296 295 297 301 304 300
293 292 293 293 294 294 295 295 295 294 295 295 296 294 294 294 292 292 291 289 289 290 289 290 292 288 296 299 296 297 300 297 298 296 296 299 302 302
292 292 293 293 294 294 294 294 294 294 294 294 295 294 295 294 293 292 292 291 291 290 290 292 293 293 294 293 293 295 297 302 302 299 297 296 296 297
292 292 292 293 294 294 294 293 293 294 295 295 294 295 296 293 294 294 293 293 292 289 290 289 291 292 292 292 292 295 296 298 301 302 302 298 297 297

GFSNE_sfc_thetae_201.txt.gz
Theta_e
323 322 318 314 313 313 311 310 307 304 306 313 311 320 316 316 316 315 316 315 315 314 311 309 308 307 307 307 308 308 308 309 311 311 312 313 313 315
316 317 317 314 313 312 312 312 312 309 305 310 311 317 317 314 316 316 313 315 314 314 312 308 308 307 306 307 307 307 308 308 309 309 309 310 311 312
314 313 312 315 312 312 312 312 311 309 306 308 311 315 318 317 315 314 313 313 313 313 311 311 309 308 307 307 307 307 307 307 308 307 308 308 309 310
309 310 309 310 312 312 311 311 311 311 308 307 311 311 316 319 316 315 310 310 310 311 310 313 310 309 308 308 307 307 306 307 307 305 306 307 307 308
309 308 307 308 306 307 308 308 309 309 310 308 308 311 312 313 311 312 309 310 309 311 310 308 307 308 310 310 308 307 306 306 304 304 305 305 306 307
306 304 303 302 302 303 304 305 307 306 308 307 307 307 308 311 308 303 302 305 304 306 308 306 307 309 309 309 310 308 306 305 304 303 303 303 303 304
305 303 302 301 301 299 302 303 304 304 304 304 303 304 304 301 299 300 298 299 300 304 301 301 302 301 304 305 308 305 305 305 304 303 303 302 301 302
304 304 303 300 302 303 301 300 300 303 303 301 301 299 300 298 298 296 294 292 290 301 295 297 303 301 301 301 303 303 304 304 303 302 302 302 301 301
305 302 300 300 299 302 303 306 304 300 299 303 300 299 297 299 297 295 293 292 291 294 295 293 303 300 302 301 304 304 303 302 302 302 302 302 301 300
300 301 301 298 295 296 302 303 305 306 306 304 305 304 303 300 297 295 294 293 293 295 296 290 297 296 300 303 305 303 302 301 302 302 302 302 301 299
296 296 298 295 291 292 300 300 301 301 304 302 300 298 296 295 296 295 292 289 288 290 295 291 294 292 297 301 304 303 302 302 301 301 302 301 300 300
301 296 291 292 291 291 298 298 297 298 301 304 307 305 301 301 298 295 292 288 288 288 294 291 292 291 289 298 299 303 304 305 303 302 302 302 301 305
298 296 294 291 290 290 291 297 296 295 301 303 304 304 302 300 297 297 296 292 290 289 294 294 292 291 291 291 295 300 304 306 307 307 304 302 301 301
297 295 295 290 290 291 294 291 292 296 300 301 302 300 299 299 296 296 297 299 296 293 296 296 293 292 292 291 292 299 304 306 306 304 305 304 303 301
296 291 291 292 292 295 293 293 296 299 298 299 300 298 298 299 297 299 297 298 297 299 297 297 296 295 295 294 294 299 299 304 305 304 304 304 303 302
292 298 297 294 293 295 299 299 299 299 298 298 299 298 298 297 295 296 293 295 294 295 297 297 296 296 295 297 299 298 299 299 302 303 303 304 302 301
293 300 299 298 298 298 298 299 298 298 297 298 299 296 293 294 293 295 294 294 292 291 292 295 296 297 300 300 298 298 297 298 300 301 302 302 302 301
297 297 296 296 296 296 296 297 297 297 297 298 298 295 293 293 293 294 294 293 291 291 291 293 294 293 294 300 300 297 298 297 298 300 301 301 301 301
296 295 295 295 295 296 296 296 295 296 298 297 297 295 295 295 294 293 293 292 291 291 291 293 292 291 288 289 297 300 297 298 297 297 299 300 301 304
295 294 294 295 296 295 296 296 296 296 296 296 296 295 296 295 294 293 293 292 291 290 290 292 292 290 289 290 292 299 295 298 297 295 296 299 304 301
295 294 295 295 295 296 296 296 296 295 296 296 296 294 297 296 295 294 294 290 290 289 288 289 291 288 295 297 294 296 299 298 298 297 296 296 299 301
294 294 295 295 295 295 296 295 294 295 295 295 295 296 298 296 295 295 295 292 290 289 290 291 292 293 294 293 292 295 296 300 302 299 298 296 294 294
294 294 294 295 295 295 295 294 293 294 295 297 298 298 298 296 296 296 295 294 291 290 290 289 290 292 292 292 291 294 294 296 300 301 302 298 298 298

GFSNE_sfc_thetae_207.txt.gz
Theta_e
310 308 308 309 308 307 307 305 301 299 300 301 302 307 307 307 312 307 306 312 313 312 314 313 310 309 309 310 311 311 310 310 310 310 310 310 311 311
309 309 309 309 307 307 307 306 304 300 296 302 305 306 306 307 310 306 305 308 309 310 311 310 308 307 308 309 310 311 311 310 309 309 310 310 310 310
309 309 305 306 304 305 305 305 303 302 299 301 302 304 300 300 301 301 302 301 302 306 307 308 306 305 306 307 307 307 309 311 309 308 309 309 310 309
304 304 303 304 302 303 302 301 301 301 300 298 300 300 299 299 298 298 299 301 299 303 305 305 303 304 305 307 306 305 307 306 307 307 307 308 308 309
301 300 300 300 299 299 299 300 299 300 298 295 295 297 296 297 297 298 297 297 298 302 303 302 302 302 304 306 306 305 305 304 304 305 305 306 307 308
300 299 299 297 295 296 299 298 299 296 295 295 293 293 294 297 295 294 294 296 294 297 299 299 300 302 303 303 304 305 304 303 304 304 304 304 304 305
298 298 297 301 305 302 297 295 294 294 293 293 292 292 293 295 293 294 293 294 294 292 294 294 295 295 297 300 301 303 304 303 303 303 303 302 302 303
296 294 294 296 297 300 303 307 299 293 292 292 292 291 292 293 294 293 292 291 289 294 293 292 295 294 295 297 300 301 303 301 301 302 302 302 302 302
294 292 291 294 294 294 299 303 303 302 300 294 290 294 292 293 293 292 291 291 290 293 293 291 294 293 296 297 299 300 301 300 300 301 302 302 302 300
290 290 289 289 293 294 294 294 294 294 294 297 294 293 292 294 294 293 293 293 293 294 294 289 293 293 296 295 298 299 300 299 300 301 302 302 301 300
290 290 289 288 293 293 293 291 291 292 298 301 299 298 296 296 297 294 292 290 289 291 293 291 292 292 294 293 294 300 300 300 301 301 302 302 301 300
287 288 294 291 292 292 288 289 289 289 291 294 294 294 294 296 298 295 294 290 290 289 293 292 292 292 290 292 297 300 301 302 301 301 302 302 300 301
289 288 288 292 292 292 292 289 289 292 294 293 292 292 294 294 295 295 295 293 291 291 296 295 292 292 292 292 295 299 301 301 302 303 302 302 300 299
288 289 289 291 291 291 291 293 294 294 294 291 289 292 292 293 294 295 295 295 295 294 296 295 292 293 291 291 292 298 300 301 302 301 303 303 302 300
290 291 292 292 294 293 294 294 294 291 291 289 288 292 293 294 295 295 295 295 295 296 296 296 295 294 294 292 293 297 297 299 302 301 302 303 303 302
293 293 294 294 295 295 293 293 293 292 290 287 291 293 295 294 293 294 293 293 292 292 295 296 296 295 293 294 295 296 298 297 300 300 301 304 306 304
292 291 290 289 289 290 290 291 291 291 290 288 292 292 293 293 293 294 293 292 290 289 290 293 295 295 296 295 295 297 297 298 300 300 300 301 304 305
290 288 288 288 288 288 289 289 290 290 289 293 293 293 292 291 292 293 293 291 289 289 290 291 291 292 293 296 300 295 297 297 299 301 300 298 300 302
289 289 287 287 288 288 288 288 287 288 291 293 292 292 292 292 292 292 292 291 289 290 290 291 290 289 287 288 294 299 295 297 298 300 299 298 298 299
289 288 288 288 288 287 287 287 287 288 288 290 290 291 291 291 290 291 292 290 289 289 289 290 290 289 288 288 290 294 295 297 297 298 299 299 299 298
288 288 288 288 287 286 285 286 286 287 287 288 289 289 289 289 289 291 292 289 288 289 288 288 290 287 293 294 292 294 297 298 299 297 298 297 297 297
288 288 288 287 286 284 284 284 285 286 286 286 288 288 289 288 288 290 292 290 290 289 289 290 291 291 290 290 289 292 294 297 301 300 299 297 296 293
288 288 287 286 284 284 283 283 283 283 284 285 286 287 287 287 288 289 290 291 290 289 289 288 289 290 290 290 289 292 292 294 297 298 301 300 300 300

GFSNE_sfc_thetae_210.txt.gz
Theta_e
307 307 306 305 305 305 306 305 302 299 296 299 300 302 302 302 305 301 301 307 308 307 307 308 309 308 308 308 309 310 310 312 313 312 312 312 312 312
308 306 306 306 305 306 305 306 304 301 296 299 301 300 298 300 303 298 299 304 304 304 306 307 306 305 306 306 307 308 308 308 310 312 311 311 312 311
305 304 303 304 304 304 305 303 301 299 296 298 299 298 296 295 297 297 299 297 298 302 305 305 304 303 304 305 306 307 307 308 308 309 309 309 310 310
302 303 302 303 302 302 302 298 298 298 296 291 294 294 294 295 295 295 297 299 296 301 303 303 302 302 303 303 304 305 306 306 305 306 307 307 308 309
301 299 300 300 299 298 297 297 296 297 294 292 291 293 293 293 294 294 295 294 297 302 301 301 301 301 302 302 302 303 305 304 303 304 305 306 307 308
299 299 299 298 297 295 295 294 294 293 293 291 290 291 291 293 293 292 292 294 293 297 298 298 299 300 300 301 302 303 303 303 302 302 303 303 303 304
298 300 301 303 304 301 296 293 293 291 290 289 290 289 290 289 290 291 290 293 293 290 294 294 294 294 296 298 300 302 302 302 302 302 302 302 301 302
293 294 295 296 298 304 306 302 296 291 289 289 289 288 289 289 289 290 290 290 289 294 293 292 294 294 296 296 300 300 300 301 301 301 302 302 301 302
291 292 293 295 294 293 297 298 298 300 299 291 288 289 288 290 291 289 291 291 291 293 294 291 295 293 295 298 299 299 300 299 300 301 301 302 301 301
291 289 288 289 292 291 290 290 290 294 295 295 291 290 291 293 293 293 293 293 293 294 295 289 294 293 296 297 299 299 300 300 300 301 301 301 300 299
289 288 288 288 293 293 290 289 291 291 298 298 296 296 295 295 296 294 291 290 289 291 294 291 293 293 294 295 297 301 300 300 300 301 301 301 300 299
286 288 295 290 292 292 287 288 288 288 290 289 290 290 293 294 297 295 293 289 289 289 293 292 292 292 289 295 297 299 301 302 301 301 301 301 300 300
287 286 287 293 293 293 292 290 289 289 290 288 288 289 290 291 294 295 295 293 290 290 295 294 292 292 292 291 294 298 301 301 302 302 302 301 300 299
287 286 289 293 292 293 293 292 293 292 288 287 287 289 291 292 294 295 295 295 295 293 295 295 292 292 291 290 291 297 300 301 302 302 302 302 302 299
287 292 293 292 292 292 293 293 292 288 287 286 288 290 293 294 295 293 295 295 294 295 296 295 294 293 293 291 292 295 296 299 301 301 302 302 304 302
294 293 293 293 293 292 290 290 289 289 287 286 289 291 293 293 293 294 293 292 291 292 295 296 295 293 292 293 294 295 297 296 300 300 301 302 303 302
291 290 289 288 288 287 287 289 288 289 288 289 290 290 290 292 292 294 293 292 290 289 290 293 294 295 295 294 293 297 296 297 299 300 301 299 302 300
289 287 286 287 286 286 286 286 288 289 288 290 290 290 289 290 290 292 293 291 289 289 290 291 291 291 293 296 299 294 296 296 298 300 301 298 297 299
287 286 286 285 285 285 285 285 285 286 287 288 288 288 288 288 289 290 291 291 289 290 290 291 290 289 286 287 294 298 294 296 297 298 300 299 297 298
287 285 284 283 283 283 284 284 285 286 286 286 287 287 287 287 288 289 291 290 289 289 289 290 290 289 287 287 289 293 294 296 296 297 298 300 298 297
286 285 283 282 282 283 283 283 283 283 283 284 285 286 286 285 287 288 290 288 288 289 288 288 290 288 292 294 292 293 296 297 299 299 298 296 295 294
285 284 283 282 282 282 282 281 281 282 282 283 283 284 285 285 286 287 289 289 288 288 288 290 292 292 292 291 290 292 294 296 300 300 300 298 295 291
284 283 282 282 282 282 280 280 280 280 280 281 282 284 285 285 286 288 290 290 289 288 288 289 290 291 291 291 290 292 292 294 296 298 299 299 299 299